Weather History for Prague, Czech Republic

Change the Weather History Date:

Wednesday, March 7, 2012

  Actual Average Record
Temperature  
Mean Temperature 31 °F -  
Max Temperature 43 °F 48 °F 55 °F (2007)
Min Temperature 19 °F 31 °F 15 °F (2005)
Degree Days  
Heating Degree Days 34    
Moisture  
Dew Point 18 °F    
Average Humidity 60    
Maximum Humidity 93    
Minimum Humidity 27    
Precipitation  
Precipitation 0.00 in 0.04 in - ()
Sea Level Pressure  
Sea Level Pressure 30.23 in    
Wind  
Wind Speed 4 mph ()    
Max Wind Speed 10 mph    
Max Gust Speed -    
Visibility 8.9 miles    
Events      
Averages and records for this station are not official NWS values.
T = Trace of Precipitation, MM = Missing Value Source: Averaged Metar Reports

Daily Weather History Graph

Daily Weather History Graph

Search for Another Location

Airport:

Trip Planner

Search our weather history database for the weather conditions in past years. The results will help you decide how hot, cold, wet, or windy it might be!

Date:

Astronomy

Mar. 07, 2012 Rise Set
Actual Time 6:33 AM CET 5:55 PM CET
Civil Twilight 6:01 AM CET 6:27 PM CET
Nautical Twilight 5:23 AM CET 7:05 PM CET
Astronomical Twilight 4:45 AM CET 7:43 PM CET
Moon 5:11 PM CET (3/7) 5:36 AM CET (3/7)
Length of Visible Light 12h 26m
Length of Day
11h 22m
Waxing Gibbous, 99% of the Moon is Illuminated
Mar 7
Waxing Gibbous
Mar 8
Full
Mar 15
Last Quarter
Mar 22
New
Mar 30
First Quarter

Hourly Weather History & Observations

Time (CET) Temp. Windchill Dew Point Humidity Pressure Visibility Wind Dir Wind Speed Gust Speed Precip Events Conditions
12:00 AM 24.8 °F 19.1 °F 15.8 °F 69% 30.36 in - East 4.6 mph - N/A   Clear
12:30 AM 23.0 °F - 15.8 °F 74% 30.36 in - ESE 2.3 mph - N/A   Clear
1:00 AM 23 °F - 15 °F 59% 30.46 in 16 mi East 6.7 mph - -   Clear
1:00 AM 24.8 °F 20.5 °F 15.8 °F 69% 30.36 in - East 3.5 mph - N/A   Clear
1:30 AM 23.0 °F 18.4 °F 15.8 °F 74% 30.36 in - East 3.5 mph - N/A   Clear
2:00 AM 23.0 °F 18.4 °F 15.8 °F 74% 30.36 in - East 3.5 mph - N/A   Clear
2:30 AM 23.0 °F 18.4 °F 15.8 °F 74% 30.33 in - East 3.5 mph - N/A   Clear
3:00 AM 23.0 °F - 15.8 °F 74% 30.33 in - ESE 2.3 mph - N/A   Clear
3:30 AM 23.0 °F - 15.8 °F 74% 30.33 in - SE 1.2 mph - N/A   Clear
4:00 AM 21.2 °F - 15.8 °F 80% 30.33 in - Variable 1.2 mph - N/A   Clear
4:30 AM 21.2 °F - 17.6 °F 86% 30.33 in - NW 2.3 mph - N/A   Clear
5:00 AM 19.4 °F - 17.6 °F 93% 30.33 in - NNW 2.3 mph - N/A   Clear
5:30 AM 21.2 °F - 17.6 °F 86% 30.33 in - NNW 2.3 mph - N/A   Clear
6:00 AM 21.2 °F - 17.6 °F 86% 30.33 in - SSE 1.2 mph - N/A   Clear
6:30 AM 21.2 °F - 17.6 °F 86% 30.33 in - Variable 1.2 mph - N/A   Clear
7:00 AM 20 °F - 16 °F 78% 30.45 in 6 mi NNE 2.2 mph - -   Scattered Clouds
7:00 AM 19.4 °F - 15.8 °F 86% 30.33 in - Variable 1.2 mph - N/A   Clear
7:30 AM 21.2 °F - 17.6 °F 86% 30.33 in - West 2.3 mph - N/A   Clear
8:00 AM 24.8 °F 20.5 °F 19.4 °F 80% 30.33 in - SSE 3.5 mph - N/A   Clear
8:30 AM 28.4 °F 24.6 °F 21.2 °F 74% 30.33 in - SSE 3.5 mph - N/A   Clear
9:00 AM 28.4 °F 24.6 °F 19.4 °F 69% 30.33 in - South 3.5 mph - N/A   Clear
9:30 AM 30.2 °F 24.3 °F 19.4 °F 64% 30.30 in - South 5.8 mph - N/A   Clear
10:00 AM 32.0 °F 26.4 °F 17.6 °F 55% 30.30 in - South 5.8 mph - N/A   Clear
10:30 AM 33.8 °F 30.8 °F 17.6 °F 52% 30.30 in 6.2 mi South 3.5 mph - N/A   Mostly Cloudy
11:00 AM 35.6 °F 31.7 °F 17.6 °F 48% 30.30 in 6.2 mi South 4.6 mph - N/A   Partly Cloudy
11:30 AM 35.6 °F 30.7 °F 17.6 °F 48% 30.27 in - South 5.8 mph - N/A   Clear
12:00 PM 37.4 °F 33.8 °F 17.6 °F 45% 30.27 in - South 4.6 mph - N/A   Clear
12:30 PM 39.2 °F 35.0 °F 17.6 °F 42% 30.24 in - South 5.8 mph - N/A   Clear
1:00 PM 40 °F - 18 °F 27% 30.30 in 12 mi South 4.5 mph - -   Scattered Clouds
1:00 PM 39.2 °F 35.0 °F 17.6 °F 42% 30.24 in - South 5.8 mph - N/A   Clear
1:30 PM 41.0 °F 38.0 °F 19.4 °F 42% 30.21 in - South 4.6 mph - N/A   Clear
2:00 PM 41.0 °F 36.4 °F 17.6 °F 39% 30.21 in - South 6.9 mph - N/A   Clear
2:30 PM 42.8 °F 38.6 °F 17.6 °F 36% 30.18 in - SSE 6.9 mph - N/A   Clear
3:00 PM 42.8 °F 39.3 °F 19.4 °F 39% 30.15 in - SE 5.8 mph - N/A   Clear
3:30 PM 42.8 °F 38.0 °F 19.4 °F 39% 30.15 in - SE 8.1 mph - N/A   Clear
4:00 PM 42.8 °F 39.3 °F 19.4 °F 39% 30.12 in - SE 5.8 mph - N/A   Clear
4:30 PM 42.8 °F 38.0 °F 19.4 °F 39% 30.12 in - SE 8.1 mph - N/A   Clear
5:00 PM 41.0 °F 35.8 °F 19.4 °F 42% 30.09 in - SE 8.1 mph - N/A   Clear
5:30 PM 39.2 °F 34.2 °F 21.2 °F 49% 30.09 in - SE 6.9 mph - N/A   Clear
6:00 PM 37.4 °F 32.1 °F 19.4 °F 48% 30.06 in - SE 6.9 mph - N/A   Clear
6:30 PM 35.6 °F 29.9 °F 21.2 °F 56% 30.06 in - SE 6.9 mph - N/A   Clear
7:00 PM 35 °F - 21 °F 43% 30.12 in 7 mi SE 8.9 mph - -   Partly Cloudy
7:00 PM 35.6 °F 29.9 °F 21.2 °F 56% 30.06 in - SE 6.9 mph - N/A   Clear
7:30 PM 37.4 °F 32.1 °F 21.2 °F 52% 30.04 in - SE 6.9 mph - N/A   Clear
8:00 PM 35.6 °F 29.2 °F 21.2 °F 56% 30.04 in - SSE 8.1 mph - N/A   Clear
8:30 PM 35.6 °F 29.2 °F 21.2 °F 56% 30.04 in - SSE 8.1 mph - N/A   Clear
9:00 PM 35.6 °F 29.2 °F 19.4 °F 52% 30.04 in - SSE 8.1 mph - N/A   Clear
9:30 PM 35.6 °F 29.2 °F 19.4 °F 52% 30.04 in - South 8.1 mph - N/A   Clear
10:00 PM 35.6 °F 28.6 °F 19.4 °F 52% 30.04 in - South 9.2 mph - N/A   Clear
10:30 PM 35.6 °F 29.2 °F 21.2 °F 56% 30.04 in - South 8.1 mph - N/A   Clear
11:00 PM 35.6 °F 28.0 °F 21.2 °F 56% 30.01 in - SSE 10.4 mph - N/A   Clear
11:30 PM 35.6 °F 28.6 °F 21.2 °F 56% 30.01 in - South 9.2 mph - N/A   Clear